Kineis-2C

operational
NORAD ID: 62929 Int'l Des: 2025-028 Owner: KINEIS Country: F
LEOCIRCULARRETROGRADESSO

Über Kineis-2C

Beschreibung wird geladen...

Live-Position

3D-Globus wird geladen...

Nächste Überflüge

Höhenverlauf

Altitude vs Time

uPlot chart will show altitude changes over time

Zweizeiliger Elementsatz

1 62929U 25028B 26063.15433360 .00001691 00000-0 27538-3 0 9992
2 62929 98.0287 118.3902 0001361 39.2836 320.8470 14.72297963 57152
Epoch: 4. März 2026 • Age: 22 hours

Aktueller Status

Höhe 656.8 km
Geschwindigkeit 7.53 km/s
Subsatellitenpunkt 18.91°N, 163.61°E
Startdatum 8. Feb. 2025
Alter 1 years
Typ other

Technische Details

Klassifizierung Payload
Masse 28.00 kg
Trockenmasse 28.00 kg
Gesamtmasse 28.00 kg
Länge 0.40 m
Durchmesser 0.20 m
Spannweite 1.60 m
Form Box+ 2 pan + ant
Hersteller KINEIS
Bus-Typ Cubesat 16U
Phasenstatus In Orbit
Besitzer/Staat KINEIS/F

Große Konstellationen

Loading constellations...